When you browse on this site, cookies collect data to enhance your experience and personalize the content and advertising you see.
Visit our Privacy Policy to learn more. By continuing to use the site, you agree to this use of cookies and data.
  • In Lithuania
  • List of Countries
  • For 7 days
  • Water Temperature
  • Satellite Maps
  • Weather Map
  • Weather Widgets
  • user-avatar
    Login

    Hourly Weather Oran

    Today, 13 December, Thursday

    Time Temperature Precipitation Wind Pressure Humidity
    00:00 +13°C° 0 mm 6 mps 753 mmHg 83%
    01:00 +13°C° 0 mm 6 mps 753 mmHg 83%
    02:00 +13°C° 0 mm 6 mps 753 mmHg 84%
    03:00 +12°C° 0 mm 7 mps 752 mmHg 84%
    04:00 +12°C° 0 mm 7 mps 752 mmHg 84%
    05:00 +12°C° 0 mm 8 mps 752 mmHg 84%
    06:00 +12°C° 0 mm 8 mps 752 mmHg 83%
    07:00 +12°C° 0 mm 8 mps 752 mmHg 79%
    08:00 +13°C° 0 mm 8 mps 751 mmHg 75%
    09:00 +15°C° 0 mm 9 mps 751 mmHg 71%
    10:00 +16°C° 0 mm 9 mps 750 mmHg 62%
    11:00 +17°C° 0 mm 8 mps 750 mmHg 53%
    12:00 +20°C° 0 mm 8 mps 749 mmHg 44%
    13:00 +19°C° 0.4 mm 9 mps 749 mmHg 45%
    14:00 +19°C° 0.4 mm 10 mps 748 mmHg 46%
    15:00 +19°C° 0.4 mm 11 mps 748 mmHg 46%
    16:00 +17°C° 1.2 mm 12 mps 748 mmHg 53%
    17:00 +15°C° 1.2 mm 14 mps 749 mmHg 60%
    18:00 +13°C° 1.2 mm 15 mps 749 mmHg 67%
    19:00 +13°C° 0.2 mm 14 mps 750 mmHg 65%
    20:00 +13°C° 0.2 mm 14 mps 750 mmHg 63%
    21:00 +12°C° 0.2 mm 13 mps 751 mmHg 62%
    22:00 +12°C° 0.5 mm 14 mps 751 mmHg 62%
    23:00 +12°C° 0.5 mm 14 mps 751 mmHg 63%

    Tomorrow, 14 December, Friday

    Time Temperature Precipitation Wind Pressure Humidity
    00:00 +12°C° 0.5 mm 14 mps 751 mmHg 64%
    01:00 +10°C° 0.2 mm 14 mps 751 mmHg 64%
    02:00 +10°C° 0.2 mm 14 mps 751 mmHg 65%
    03:00 +10°C° 0.2 mm 14 mps 751 mmHg 65%
    04:00 +10°C° 0.1 mm 14 mps 751 mmHg 65%
    05:00 +10°C° 0.1 mm 14 mps 752 mmHg 65%
    06:00 +10°C° 0.1 mm 13 mps 752 mmHg 65%
    07:00 +12°C° 0 mm 13 mps 753 mmHg 64%
    08:00 +12°C° 0 mm 12 mps 753 mmHg 63%
    09:00 +13°C° 0 mm 12 mps 754 mmHg 62%
    10:00 +13°C° 0 mm 11 mps 754 mmHg 60%
    11:00 +14°C° 0 mm 11 mps 755 mmHg 57%
    12:00 +14°C° 0 mm 10 mps 755 mmHg 55%
    13:00 +15°C° 0 mm 9 mps 755 mmHg 56%
    14:00 +15°C° 0 mm 9 mps 755 mmHg 56%
    15:00 +15°C° 0 mm 8 mps 756 mmHg 57%
    16:00 +14°C° 0 mm 7 mps 756 mmHg 61%
    17:00 +13°C° 0 mm 6 mps 756 mmHg 65%
    18:00 +13°C° 0 mm 6 mps 757 mmHg 69%
    19:00 +12°C° 0 mm 5 mps 757 mmHg 71%
    20:00 +12°C° 0 mm 5 mps 758 mmHg 73%
    21:00 +12°C° 0 mm 5 mps 758 mmHg 75%
    22:00 +12°C° 0 mm 5 mps 758 mmHg 76%
    23:00 +12°C° 0 mm 5 mps 758 mmHg 77%

    Day after tomorrow, 15 December, Saturday

    Time Temperature Precipitation Wind Pressure Humidity
    00:00 +12°C° 0 mm 5 mps 758 mmHg 78%
    01:00 +10°C° 0 mm 5 mps 758 mmHg 78%
    02:00 +10°C° 0 mm 5 mps 758 mmHg 79%
    03:00 +10°C° 0 mm 6 mps 759 mmHg 79%
    04:00 +10°C° 0 mm 6 mps 759 mmHg 78%
    05:00 +10°C° 0 mm 5 mps 759 mmHg 77%
    06:00 +9°C° 0 mm 5 mps 759 mmHg 76%
    07:00 +10°C° 0 mm 5 mps 759 mmHg 70%
    08:00 +12°C° 0 mm 5 mps 760 mmHg 65%
    09:00 +13°C° 0 mm 5 mps 760 mmHg 59%
    10:00 +14°C° 0 mm 5 mps 760 mmHg 52%
    11:00 +15°C° 0 mm 4 mps 760 mmHg 46%
    12:00 +17°C° 0 mm 4 mps 759 mmHg 40%
    13:00 +18°C° 0 mm 4 mps 759 mmHg 37%
    14:00 +18°C° 0 mm 4 mps 759 mmHg 35%
    15:00 +18°C° 0 mm 3 mps 758 mmHg 33%
    16:00 +17°C° 0 mm 3 mps 758 mmHg 39%
    17:00 +16°C° 0 mm 2 mps 758 mmHg 45%
    18:00 +14°C° 0 mm 2 mps 759 mmHg 52%
    19:00 +14°C° 0 mm 2 mps 759 mmHg 50%
    20:00 +14°C° 0 mm 2 mps 759 mmHg 49%
    21:00 +14°C° 0 mm 2 mps 759 mmHg 47%
    22:00 +14°C° 0 mm 2 mps 758 mmHg 46%
    23:00 +13°C° 0 mm 3 mps 758 mmHg 45%

    16 December, Sunday

    Time Temperature Precipitation Wind Pressure Humidity
    00:00 +12°C° 0 mm 3 mps 758 mmHg 43%
    01:00 +12°C° 0 mm 3 mps 758 mmHg 43%
    02:00 +12°C° 0 mm 3 mps 757 mmHg 42%
    03:00 +12°C° 0 mm 3 mps 757 mmHg 42%
    04:00 +12°C° 0 mm 3 mps 757 mmHg 41%
    05:00 +12°C° 0 mm 3 mps 756 mmHg 40%
    06:00 +12°C° 0 mm 3 mps 756 mmHg 39%
    07:00 +14°C° 0 mm 3 mps 757 mmHg 37%
    08:00 +15°C° 0 mm 4 mps 757 mmHg 35%
    09:00 +18°C° 0 mm 4 mps 757 mmHg 33%
    10:00 +19°C° 0 mm 4 mps 757 mmHg 31%
    11:00 +20°C° 0 mm 5 mps 757 mmHg 29%
    12:00 +21°C° 0 mm 5 mps 757 mmHg 28%
    13:00 +21°C° 0 mm 6 mps 757 mmHg 30%
    14:00 +21°C° 0 mm 6 mps 756 mmHg 33%
    15:00 +21°C° 0 mm 6 mps 756 mmHg 36%
    16:00 +20°C° 0 mm 6 mps 756 mmHg 43%
    17:00 +17°C° 0 mm 5 mps 757 mmHg 50%
    18:00 +16°C° 0 mm 5 mps 757 mmHg 57%
    19:00 +15°C° 0 mm 5 mps 757 mmHg 57%
    20:00 +15°C° 0 mm 5 mps 758 mmHg 57%
    21:00 +15°C° 0 mm 5 mps 758 mmHg 57%
    22:00 +15°C° 0 mm 5 mps 758 mmHg 57%
    23:00 +15°C° 0 mm 5 mps 758 mmHg 56%

    17 December, Monday

    Time Temperature Precipitation Wind Pressure Humidity
    00:00 +15°C° 0 mm 5 mps 758 mmHg 55%
    01:00 +15°C° 0 mm 5 mps 758 mmHg 59%
    02:00 +14°C° 0 mm 5 mps 758 mmHg 62%
    03:00 +14°C° 0 mm 4 mps 758 mmHg 66%
    04:00 +14°C° 0 mm 4 mps 758 mmHg 70%
    05:00 +14°C° 0 mm 3 mps 758 mmHg 75%
    06:00 +15°C° 0 mm 2 mps 758 mmHg 79%
    07:00 +16°C° 0 mm 3 mps 759 mmHg 79%
    08:00 +16°C° 0 mm 3 mps 759 mmHg 79%
    09:00 +17°C° 0 mm 4 mps 759 mmHg 79%
    10:00 +18°C° 0 mm 4 mps 759 mmHg 73%
    11:00 +18°C° 0 mm 4 mps 759 mmHg 68%
    12:00 +19°C° 0 mm 4 mps 759 mmHg 62%
    13:00 +19°C° 0 mm 4 mps 759 mmHg 61%
    14:00 +19°C° 0 mm 3 mps 759 mmHg 60%
    15:00 +19°C° 0 mm 3 mps 758 mmHg 59%
    16:00 +17°C° 0 mm 3 mps 759 mmHg 65%
    17:00 +16°C° 0 mm 2 mps 759 mmHg 71%
    18:00 +15°C° 0 mm 2 mps 759 mmHg 77%
    19:00 +15°C° 0 mm 2 mps 759 mmHg 79%
    20:00 +14°C° 0 mm 2 mps 760 mmHg 81%
    21:00 +14°C° 0 mm 2 mps 760 mmHg 83%
    22:00 +14°C° 0 mm 2 mps 760 mmHg 83%
    23:00 +13°C° 0 mm 2 mps 760 mmHg 83%

    18 December, Tuesday

    Time Temperature Precipitation Wind Pressure Humidity
    00:00 +13°C° 0 mm 2 mps 759 mmHg 83%
    01:00 +13°C° 0 mm 2 mps 759 mmHg 83%
    02:00 +13°C° 0 mm 2 mps 759 mmHg 82%
    03:00 +13°C° 0 mm 2 mps 758 mmHg 82%
    04:00 +13°C° 0 mm 2 mps 758 mmHg 81%
    05:00 +12°C° 0 mm 3 mps 758 mmHg 80%
    06:00 +11°C° 0 mm 3 mps 758 mmHg 80%
    07:00 +14°C° 0 mm 2 mps 758 mmHg 73%
    08:00 +15°C° 0 mm 2 mps 758 mmHg 66%
    09:00 +16°C° 0 mm 2 mps 758 mmHg 59%
    10:00 +18°C° 0 mm 2 mps 758 mmHg 52%
    11:00 +19°C° 0 mm 2 mps 757 mmHg 45%
    12:00 +21°C° 0 mm 2 mps 757 mmHg 38%
    13:00 +21°C° 0 mm 2 mps 756 mmHg 38%
    14:00 +21°C° 0 mm 2 mps 755 mmHg 37%
    15:00 +21°C° 0 mm 2 mps 755 mmHg 36%
    16:00 +20°C° 0 mm 2 mps 755 mmHg 43%
    17:00 +18°C° 0 mm 2 mps 755 mmHg 51%
    18:00 +16°C° 0 mm 2 mps 755 mmHg 58%
    19:00 +16°C° 0 mm 2 mps 755 mmHg 59%
    20:00 +16°C° 0 mm 3 mps 755 mmHg 60%
    21:00 +14°C° 0 mm 3 mps 755 mmHg 61%
    22:00 +14°C° 0 mm 3 mps 755 mmHg 61%
    23:00 +14°C° 0 mm 3 mps 755 mmHg 60%
    Show more